Flag for U.S.A. Weather past 2 weeks in Pontiac, Michigan, U.S.A.

Now
38 °F

Clear.


Feels Like: 34 °F
Forecast: 38 / 69 °F
Wind: 5 mph from East

Location: Oakland County International Airport


UV Index: 5 (Moderate)

Visibility: 10 mi


Pressure: 30.33 "Hg

Humidity: 65%

Dew point: 27 °F

Location of PontiacLocation

Historic Weather in Pontiac

°F

Pontiac temperature yesterday

Maximum temperature yesterday: 55 °F (at 4:53 PM)
Minimum temperature yesterday: 32 °F (at 3:53 AM)
Average temperature yesterday: 43 °F

Past Weeks' High & Low Weather Summary

 TemperatureHumidityPressure
High74 °F (Apr 13, 2:53 PM)93% (Apr 8, 1:53 AM)30.47 "Hg (Apr 8, 1:53 AM)
Low20 °F (Apr 16, 3:53 AM)17% (Apr 11, 2:53 PM)29.39 "Hg (Apr 14, 6:53 AM)
Average46 °F56%30.00 "Hg
* Reported Apr 5 3:53 AM — Apr 20 3:53 AM, Pontiac, Weather by CustomWeather, © 2014

Note: Actual official high and low records may vary slightly from our data, if they occured in-between our weather recording intervals... More about our weather records

Advertising

Historic Weather Conditions — Data for Previous 24 hours

 ConditionsComfort  
Time TempWeatherWind HumidityBarometerVisibility
3:53 AM
Apr 20
39 °FClear.3 mph65%30.32 "Hg10 mi
2:53 AM40 °FClear.5 mph63%30.33 "Hg10 mi
1:53 AM38 °FClear.3 mph70%30.35 "Hg10 mi
12:53 AM38 °FClear.No wind70%30.37 "Hg10 mi
11:53 PM
Apr 19
44 °FPassing clouds.No wind55%30.37 "Hg10 mi
10:53 PM44 °FPassing clouds.5 mph55%30.36 "Hg10 mi
9:53 PM46 °FPassing clouds.9 mph54%30.36 "Hg10 mi
8:53 PM50 °FScattered clouds.13 mph46%30.35 "Hg10 mi
7:53 PM53 °FScattered clouds.8 mph37%30.34 "Hg10 mi
6:53 PM54 °FScattered clouds.9 mph27%30.34 "Hg10 mi
5:53 PM55 °FPassing clouds.9 mph29%30.37 "Hg10 mi
4:53 PM55 °FPassing clouds.13 mph30%30.37 "Hg10 mi
3:53 PM54 °FPassing clouds.9 mph33%30.40 "Hg10 mi
2:53 PM53 °FPassing clouds.12 mph35%30.42 "Hg10 mi
1:53 PM52 °FPassing clouds.12 mph38%30.43 "Hg10 mi
12:53 PM50 °FPassing clouds.14 mph39%30.45 "Hg10 mi
11:53 AM47 °FPassing clouds.12 mph41%30.46 "Hg10 mi
10:53 AM45 °FPassing clouds.10 mph48%30.47 "Hg10 mi
9:53 AM41 °FSunny.10 mph62%30.47 "Hg10 mi
8:53 AM37 °FPassing clouds.8 mph73%30.45 "Hg10 mi
7:53 AM33 °FSunny.12 mph82%30.45 "Hg10 mi
6:53 AM32 °FClear.6 mph79%30.42 "Hg10 mi
5:53 AM32 °FClear.7 mph79%30.40 "Hg10 mi
Weather by CustomWeather, © 2014

See weather overview